This demonstration page uses our WeatherBlox Daily Observations layout. Learn more.

Left ArrowRight Arrow

38.88101, -77.10428

Hourly Observations for December 17, 2015

Temp ( °F °C ) Dew Point ( °F °C ) Humidity (%) Winds ( mph kmh ) Pressure ( in mb ) Visibility ( mi km ) Precip ( " mm )
12:46 am 00:46 Partly Cloudy 46 8 45 7 93 93 S 6 9 30.03 1017 10 16 N/A
12:52 am 00:52 Partly Cloudy 48 8.9 45 7.2 89 89 S 6 9 30.02 1017 10 16 N/A
1:35 am 01:35 Mostly Cloudy 47 8.3 44 6.7 90 90 WSW 5 7 30.03 1017 10 16 N/A
1:52 am 01:52 Mostly Cloudy 47 8.3 45 7.2 93 93 WSW 5 7 30.02 1017 10 16 N/A
2:52 am 02:52 Cloudy 48 8.9 46 7.8 93 93 N N/A 30.00 1016 10 16 N/A
3:52 am 03:52 Cloudy 49 9.4 46 7.8 90 90 N N/A 30.01 1016 10 16 N/A
4:52 am 04:52 Cloudy 49 9.4 47 8.3 93 93 NNE 3 6 29.98 1015 10 16 N/A
5:14 am 05:14 Cloudy 48 9 46 8 94 94 ENE 5 7 29.97 1015 10 16 N/A
5:52 am 05:52 Cloudy 49 9.4 46 7.8 90 90 NNE 5 7 29.96 1015 10 16 N/A
6:00 am 06:00 Cloudy 48 9 46 8 94 94 N 6 9 29.97 1015 10 16 N/A
6:52 am 06:52 Cloudy with Light Rain 49 9.4 46 7.8 90 90 ENE 3 6 29.96 1014 10 16 N/A
7:52 am 07:52 Cloudy with Light Rain 49 9.4 47 8.3 93 93 N 6 9 29.93 1014 5 8 0.04 1.02
8:52 am 08:52 Cloudy with Light Rain 50 10 48 8.9 93 93 NE 7 11 29.91 1013 4 6 0.05 1.27
9:14 am 09:14 Cloudy with Light Rain 48 9 48 9 100 100 NE 7 11 29.91 1013 6 10 N/A
9:32 am 09:32 Cloudy with Light Rain 48 9 46 8 94 94 ENE 8 13 29.88 1012 6 10 N/A
9:52 am 09:52 Cloudy with Light Rain 50 10 48 8.9 93 93 N 5 7 29.90 1012 6 10 0.03 0.76
10:42 am 10:42 Cloudy with Light Rain 52 11 48 9 88 88 N N/A 29.88 1012 4 6 N/A
10:52 am 10:52 Cloudy with Light Rain 50 10 49 9.4 96 96 NE 3 6 29.86 1011 4 6 0.03 0.76
11:01 am 11:01 Cloudy with Light Rain 50 10 49 9.4 96 96 NNE 5 7 29.85 1011 5 8 0.01 0.25
11:52 am 11:52 Cloudy with Light Rain 50 10 49 9.4 96 96 N N/A 29.83 1010 4 6 0.06 1.52
12:52 pm 12:52 Cloudy with Light Rain 52 11.1 50 10 93 93 N N/A 29.79 1009 4 6 0.04 1.02
1:04 pm 13:04 Cloudy with Light Rain 52 11 50 10 94 94 N N/A 29.77 1008 3 5 N/A
1:44 pm 13:44 Cloudy with Light Rain 52 11 52 11 100 100 N N/A 29.77 1008 3 4 N/A
1:52 pm 13:52 Cloudy with Light Rain 52 11.1 51 10.6 97 97 N N/A 29.77 1008 3 5 0.07 1.78
2:52 pm 14:52 Cloudy with Light Rain 52 11.1 51 10.6 97 97 N N/A 29.76 1008 4 6 0.04 1.02
3:06 pm 15:06 Cloudy with Light Rain 52 11 52 11 100 100 ESE 5 7 29.74 1007 3 5 N/A
3:28 pm 15:28 Cloudy with Light Rain 52 11 52 11 100 100 ESE 3 6 29.71 1006 3 5 N/A
3:52 pm 15:52 Cloudy with Light Rain 53 11.7 52 11.1 96 96 N N/A 29.71 1006 5 8 0.06 1.52
4:52 pm 16:52 Cloudy 53 11.7 51 10.6 93 93 WSW 3 6 29.72 1006 7 11 N/A
5:07 pm 17:07 Cloudy with Mist and Fog 53 11.7 51 10.6 93 93 W 3 6 29.71 1006 6 10 N/A
5:46 pm 17:46 Cloudy 54 12 52 11 94 94 S 5 7 29.74 1007 7 11 N/A
5:52 pm 17:52 Cloudy with Mist and Fog 53 11.7 52 11.1 96 96 S 5 7 29.73 1007 6 10 N/A
6:15 pm 18:15 Cloudy with Mist and Fog 53 11.7 52 11.1 96 96 N N/A 29.74 1007 4 6 N/A
6:48 pm 18:48 Cloudy with Mist and Fog 54 12 52 11 94 94 S 5 7 29.74 1007 4 6 N/A
6:52 pm 18:52 Cloudy with Mist and Fog 53 11.7 52 11.1 96 96 SSW 5 7 29.74 1007 4 6 N/A
7:04 pm 19:04 Cloudy with Mist and Fog 52 11 52 11 100 100 S 7 11 29.74 1007 4 6 N/A
7:22 pm 19:22 Cloudy with Fog 52 11 52 11 100 100 S 6 9 29.74 1007 1 1 N/A
7:40 pm 19:40 Cloudy with Mist and Fog 54 12 52 11 94 94 N N/A 29.74 1007 3 5 N/A
7:52 pm 19:52 Cloudy with Mist and Fog 53 11.7 52 11.1 96 96 W 5 7 29.75 1007 4 6 N/A
8:00 pm 20:00 Cloudy 54 12 52 11 94 94 W 6 9 29.74 1007 10 16 N/A
8:52 pm 20:52 Cloudy 54 12.2 51 10.6 90 90 WSW 7 11 29.77 1008 10 16 N/A
9:14 pm 21:14 Cloudy 54 12 52 11 94 94 SW 5 7 29.77 1008 10 16 N/A
9:52 pm 21:52 Mostly Cloudy 52 11.1 50 10 93 93 NW 6 9 29.75 1008 9 14 N/A
10:52 pm 22:52 Cloudy 53 11.7 50 10 89 89 NNW 7 11 29.75 1008 10 16 N/A
11:23 pm 23:23 Cloudy 52 11.1 50 10 93 93 NNW 5 7 29.77 1008 10 16 N/A
11:52 pm 23:52 Mostly Cloudy 51 10.6 49 9.4 92 92 N 5 7 29.77 1008 8 13 N/A
11:58 pm 23:58 Cloudy 52 11 48 9 88 88 N 3 6 29.77 1008 8 13 N/A

Powered by AerisWeather